Regional Weather Roundup
Issued by NWS Wakefield, VA

Home | Current Version | Previous Version | Graphics & Text | Print | Product List | Glossary On
Versions: 1 2 3 4 5 6 7 8 9 10 11 12 13 14 15 16 17 18 19 20 21 22 23 24 25 26 27 28 29 30 31 32 33 34 35 36 37 38 39 40 41 42 43 44 45
000
ASUS41 KAKQ 260210
RWRAKQ

REGIONAL WEATHER ROUNDUP
NATIONAL WEATHER SERVICE WAKEFIELD VA
900 PM EST THU DEC 25 2014

Note: "fair" indicates few or no clouds below 12,000 feet with no
significant weather and/or obstructions to visibility. * = Denotes
station may not report precipitation (e.g., rain,snow,etc.),
thunder or fog.

VAZ042-051-052>054-056-260300-
NORTHERN VIRGINIA

CITY           SKY/WX    TMP DP  RH WIND       PRES   REMARKS
WASH NATIONAL  CLEAR     48  29  47 NW12      30.21R
DULLES         CLEAR     41  29  62 NW7       30.20R
FORT BELVOIR   CLEAR     45  30  54 NW12G17   30.20R
QUANTICO       CLEAR     44  30  57 N5        30.21R
FREDERICKSBRG* CLEAR     37  34  89 CALM      30.21R
STAFFORD*      CLEAR     34  34 100 CALM      30.24R
WARRENTON      CLEAR     34  33  97 CALM      30.20R
CULPEPER*      CLEAR     36  30  80 CALM      30.21R
MANASSAS*      CLEAR     39  32  75 N6        30.20S
LEESBURG*      CLEAR     43  32  65 W5        30.21S
WINCHESTER     CLEAR     43  25  49 SW6       30.19R
FRONT ROYAL*   CLEAR     39  28  65 CALM      30.18R
LURAY*         CLEAR     36  32  87 SE5       30.19R
$$

VAZ048-049-060>072-079>083-260300-
CENTRAL AND SOUTH CENTRAL VIRGINIA

CITY           SKY/WX    TMP DP  RH WIND       PRES   REMARKS
RICHMOND       CLEAR     47  32  56 W7        30.22R
CHESTERFIELD*  CLEAR     37  23  56 CALM      30.23R
PETERSBURG*    CLEAR     40  34  79 W5        30.24R
HANOVER        CLEAR     36  34  92 SW3       30.23R
TAPPAHANNOCK*  CLEAR     38  32  77 CALM      30.20R
QUINTON*       CLEAR     37  34  89 CALM      30.21R
CHARLOTTSVILLE CLEAR     43  29  57 CALM      30.21R
GORDONSVILLE*  CLEAR     45  30  54 W5        30.20R
ORANGE*        CLEAR     36  32  87 CALM      30.22R
LOUISA*        CLEAR     34  30  86 CALM      30.20R
BUMPASS*       CLEAR     37  32  83 CALM      30.21R
FARMVILLE*     CLEAR     39  32  73 CALM      30.22R
CREWE*         CLEAR     44  31  59 CALM      30.22R
FORT PICKETT*  CLEAR     41  32  71 W3        30.21S
CHASE CITY*    CLEAR     40  36  84 CALM      30.22F
CLARKSVILLE*   CLEAR     41  32  70 CALM      30.22S
SOUTH HILL*    CLEAR     43  33  66 CALM      30.28S
LAWRENCEVILLE* CLEAR     42  34  73 CALM      30.22S
EMPORIA*       CLEAR     34  32  93 CALM      30.25R
$$

VAZ088>098-260300-
SOUTHEAST VIRGINIA

CITY           SKY/WX    TMP DP  RH WIND       PRES   REMARKS
NORFOLK        CLEAR     44  35  70 SW5       30.21R
VIRGINIA BEACH CLEAR     44  36  73 W5        30.20R
NORFOLK NAVAL  CLEAR     48  36  63 SW5       30.23R
WEST POINT*    CLEAR     37  33  85 CALM      30.23R
SALUDA*        FAIR      39  34  82 CALM      30.19R
NEWPORT NEWS   CLEAR     45  36  70 SW3       30.22R
LANGLEY AFB    CLEAR     40  35  83 W5        30.22R
FORT EUSTIS    CLEAR     39  39 100 W2        30.21R
WILLIAMSBURG*  CLEAR     43  39  87 W8        30.22R
HR EXEC AP*    CLEAR     36  30  80 W3        30.24R
FRANKLIN*      CLEAR     37  37 100 CALM      30.23R
WAKEFIELD      CLEAR     38  34  85 CALM      30.23R
$$

VAZ020-022-025-037-045-260300-
WEST CENTRAL AND SOUTHWEST VIRGINIA

CITY           SKY/WX    TMP DP  RH WIND       PRES   REMARKS
STAUNTON*      CLEAR     33  27  79 CALM      30.21R
WAYNESBORO*    CLEAR     38  28  68 SW5       30.19R
HOT SPRINGS VA CLEAR     31  28  88 W18       30.13R WCI  19
LYNCHBURG      CLEAR     34  29  82 CALM      30.23R
DANVILLE       CLEAR     36  30  79 W3        30.23S
SOUTH BOSTON*  CLEAR     35  32  87 CALM      30.22F
MARTINSVILLE   CLEAR     31  31 100 NW3       30.24F
ROANOKE        CLEAR     38  28  67 N5        30.25R
BLACKSBURG     FAIR      31  28  88 CALM      30.25S
DUBLIN*        CLEAR     33  29  86 CALM      30.24F
MARION*        CLEAR     35  30  82 W10       30.23F
HILLSVILLE*    CLEAR     36  29  76 NW10      30.20F
RICHLANDS*     CLEAR     36  28  71 SW6       30.23F
WISE*          CLEAR     34  28  80 SW5       30.22F
ABINGDON*      CLEAR     34  31  87 CALM      30.24F
$$

MDZ021>025-VAZ099-100-260300-
SOUTHERN MARYLAND AND THE DELMARVA PENINSULA

CITY           SKY/WX    TMP DP  RH WIND       PRES   REMARKS
PATUXENT RIVER CLEAR     40  32  73 W5        30.20R
BAY BRIDGE APT   N/A     45  32  61 NW10      30.19R
LEONARDTOWN    CLEAR     43  30  61 CALM      30.20S
DOVER          CLEAR     43  29  59 W6        30.15R
GEORGETOWN     CLEAR     43  33  68 NW3       30.17R
EASTON         CLEAR     46  34  61 NW9       30.21R
CAMBRIDGE      CLEAR     41  34  75 CALM      30.19R
SALISBURY      CLEAR     44  32  62 NW6       30.18R
OCEAN CITY     CLEAR     39  32  76 NW3       30.18R
WALLOPS ISLAND CLEAR     38  35  89 NW3       30.19R
ACCOMACK*      CLEAR     36  34  93 CALM      30.20R
$$

NCZ012>017-030>032-260300-
NORTH CENTRAL AND EASTERN NORTH CAROLINA

CITY           SKY/WX    TMP DP  RH WIND       PRES   REMARKS
ROANOKE RAPIDS CLEAR     37  34  87 CALM      30.23S
RALEIGH        CLEAR     39  33  79 CALM      30.24R
ELIZABETH CITY FAIR      48  37  65 W5        30.22R
AHOSKIE*       CLEAR     37  35  92 CALM      30.24R
EDENTON*         N/A     42  37  81 NW5       30.23R
CURRITUCK*     FAIR      43  40  91 CALM      30.22R
KILL DEVIL HLS FAIR      49  43  78 W3        30.20R
MANTEO         FAIR      46  41  81 CALM      30.22R
CAPE HATTERAS  CLEAR     42  41  96 NW3       30.21R
TARBORO*       CLEAR     39  37  92 CALM      30.24S
GOLDSBORO      CLEAR     44  43  97 CALM      30.22R
WASHINGTON     CLEAR     41  38  90 CALM      30.23S
GREENVILLE     CLEAR     41  41 100 CALM      30.24S
NEW BERN       CLEAR     43  40  89 CALM      30.24R
WILMINGTON     CLEAR     44  42  93 CALM      30.23R
$$

VAZ048-260300-
ELSEWHERE

CITY           SKY/WX    TMP DP  RH WIND       PRES   REMARKS
HARRISBURG PA  PTCLDY    41  28  60 NW10      30.14S
BALTIMORE      CLEAR     39  30  70 W3        30.18R
ANNAPOLIS      CLEAR     46  30  53 W7        30.19R
ANDREWS AFB    CLEAR     44  30  57 NW10      30.19R
PHILADELPHIA   PTCLDY    46  30  53 W14       30.15R
HENDERSON NC   CLEAR     44  31  60 W3        30.22S
GREENSBORO     CLEAR     41  30  65 NW6       30.21R
ROCKY MOUNT    CLEAR     39  36  89 CALM      30.23R
$$

VAZ100-260300-
MARINE

STATION/POSITION TIME  TEMP    WIND        PRES    WAVE   SWELL
                       AIR SEA DIR/SP/G            HT/PER HT/PER
                 (UTC) (F)     (DEG/KT/KT) (MB)    (FT/S) (FT/S)
CAPE MAY NJ      0200   45 47  280/  9/ 11 1021.0R
LEWES DE         0200   47 45  300/ 12/ 14 1021.3R
15NM E FENWICK I 0200   47 47              1021.2R   3/ 7
OCEAN-CITY-INLET 0200   45 47  320/  4/  6 1021.2F
WACHAPREAGUE VA  0200   42 50  320/  1/  2 1022.1R
THOMAS POINT MD  0200   46 43  310/ 11/ 12 1023.6R
GOOSES REEF MD   0200   45     VRB  6/  8  1021.5R   1
COVE POINT MD    0200   46     340/  8/  9 1022.3R
SOLOMONS ISLAND  0200      44                N/A
BISHOPS HEAD MD  0200   45 46  330/  7/ 10 1021.8R
PINEY POINT MD   0200          360/  3/  4   N/A
POTOMAC MD       0200   45 44  350/  2/  4 1021.6R   0
CAMBRIDGE MD     0200   46 42  290/  7/ 11 1021.9R
LEWISETTA VA     0200   45 45  360/  2/  4 1022.3R
RAPPAHANNOCK LGT 0200          220/  6/  7 1022.7R
STINGRAY PT      0200   47 44  240/  6/  6 1022.9R   0
YORK RVR RNG VA  0200   46     250/  8/  8 1022.1R
YORKTOWN VA      0200   49 46  250/  7/  9 1022.5R
JAMESTOWN VA     0200   43 46  260/  4/  4   N/A     0
DOMINION TERM VA 0200   48     250/  2/  3 1023.1R
KIPTOPEKE VA     0200      51  130/  1/  3   N/A
CHES BAY BRIDGE  0200   48 46  210/  9/  9 1022.2R
CAPE HENRY VA    0200   50     250/  8/ 10 1021.5R
CHESAPEAKE LGHT  0100   49     220/  4/  5 1022.4R
WILLOUBY STN VA  0200   48     240/  9/  9 1023.4R
S CRANEY ISL VA  0200          250/  6/  7 1023.0R
CAPE HENRY BUOY  0200      48                N/A     2/ 8
1ST LANDING BUOY 0200   48 45  240/  8/  8 1022.4R   1/ 5
CAPE CHARLES BUO 0200      47                N/A     2/ 8   2/ 8
64NM E OF VA BCH 0200   52 52  250/  4/  4 1022.0R   4/ 6   3/ 6
DUCK PIER NC     0200   51 50  280/  6/  7 1022.2R
44100 DUCK FRF   0200      50                N/A     2/ 8
44056 DUCK FRF   0200      50                N/A     2/10
OREGON INLET NC  0200   49 55  290/  4/  5 1023.0R
HATTERAS NC      0200   54 58  320/  6/  7 1023.3R
DIAMOND SHLS NC  0200   56                 1022.9R   5/10
CAPE LOOKOUT NC  0100   55     320/  4/  5 1022.3R
$$


USA.gov is the U.S. government's official web portal to all federal, state and local government web resources and services.